Burnsville, North Carolina, United States (28714)
Lat: 35.92N, Lon: 82.3W
Wx Zone: NCZ049
Local Info
Past Weather Observations for Wednesday, November 26, 2014

NOTE: This archive is for the closest National Weather Service station to Burnsville. Information may differ from the station used for current weather conditions.

Click here for Long-term Archive

Time Weather Temperature Dewpoint Humidity Pressure Winds Precip Visibility
23:54
Mostly Cloudy
36°F / 2°C 32°F / 0°C 87% 30.01 in
(1016 mb)
SW 3.5 mph
(SW 6 kph)
- 10SM
22:54
Partly Cloudy
37°F / 3°C 30°F / -1°C 75% 30.01 in
(1016 mb)
Calm - 10SM
21:54
Clear
39°F / 4°C 28°F / -2°C 65% 30.01 in
(1016 mb)
Calm - 10SM
20:54
Clear
41°F / 5°C 28°F / -2°C 61% 30.01 in
(1016 mb)
NNW 5.8 mph
(NNW 9 kph)
- 10SM
19:54
Overcast
43°F / 6°C 28°F / -2°C 57% 30.01 in
(1016 mb)
NNW 6.9 mph
(NNW 11 kph)
- 10SM
18:54
Clear
43°F / 6°C 30°F / -1°C 61% 30.01 in
(1016 mb)
NNW 9.2 mph
(NNW 15 kph)
- 10SM
17:54
Clear
45°F / 7°C 28°F / -2°C 53% 29.98 in
(1015 mb)
N 5.8 mph
(N 9 kph)
- 10SM
16:54
Partly Cloudy
48°F / 9°C 30°F / -1°C 50% 29.98 in
(1015 mb)
NNW 6.9 mph
(NNW 11 kph)
- 10SM
15:54
Partly Cloudy
50°F / 10°C 34°F / 1°C 54% 29.98 in
(1015 mb)
NNW 8.1 mph
(NNW 13 kph)
- 10SM
14:54
Clear
50°F / 10°C 34°F / 1°C 54% 29.98 in
(1015 mb)
N 6.9 mph
(N 11 kph)
- 10SM
13:54
Partly Cloudy
48°F / 9°C 34°F / 1°C 58% 29.98 in
(1015 mb)
NNW 6.9 mph
(NNW 11 kph)
- 10SM
12:54
Clear
46°F / 8°C 36°F / 2°C 66% 29.98 in
(1015 mb)
N 9.2 mph
(N 15 kph)
- 10SM
11:54
Partly Cloudy
46°F / 8°C 37°F / 3°C 71% 30.01 in
(1016 mb)
N 8.1 mph
(N 13 kph)
- 10SM
11:18
Partly Cloudy
45°F / 7°C 37°F / 3°C 76% 30.01 in
(1016 mb)
N 9.2 mph
(N 15 kph)
- 10SM
11:05
Mostly Cloudy
45°F / 7°C 37°F / 3°C 76% 30.04 in
(1017 mb)
NNW 11.5 mph
(NNW 19 kph)
- 10SM
10:54
Mostly Cloudy
45°F / 7°C 37°F / 3°C 76% 30.04 in
(1017 mb)
N 10.4 mph
(N 17 kph)
- 10SM
10:11
Overcast
43°F / 6°C 37°F / 3°C 81% 30.01 in
(1016 mb)
N 8.1 mph
(N 13 kph)
- 10SM
09:54
Overcast
41°F / 5°C 37°F / 3°C 87% 30.01 in
(1016 mb)
N 8.1 mph
(N 13 kph)
0.00 in
(0.00 mm)
10SM
09:31
Overcast
39°F / 4°C 37°F / 3°C 93% 30.01 in
(1016 mb)
NNW 9.2 mph
(NNW 15 kph)
0.00 in
(0.00 mm)
10SM
09:01
Overcast
39°F / 4°C 36°F / 2°C 87% 30.01 in
(1016 mb)
NW 6.9 mph
(NW 11 kph)
0.00 in
(0.00 mm)
10SM
08:54
Overcast
Light Rain
39°F / 4°C 36°F / 2°C 87% 30.01 in
(1016 mb)
NW 6.9 mph
(NW 11 kph)
0.01 in
(0.25 mm)
10SM
07:54
Overcast
Light Rain
39°F / 4°C 36°F / 2°C 87% 30.01 in
(1016 mb)
N 5.8 mph
(N 9 kph)
0.06 in
(1.52 mm)
10SM
07:02
Overcast
Rain
39°F / 4°C 37°F / 3°C 93% 29.98 in
(1015 mb)
N 8.1 mph
(N 13 kph)
0.02 in
(0.51 mm)
7SM
06:54
Overcast
Light Rain
39°F / 4°C 37°F / 3°C 93% 29.98 in
(1015 mb)
NNW 8.1 mph
(NNW 13 kph)
0.07 in
(1.78 mm)
5SM
06:49
Overcast
Rain
39°F / 4°C 37°F / 3°C 93% 29.98 in
(1015 mb)
NNW 9.2 mph
(NNW 15 kph)
0.07 in
(1.78 mm)
5SM
06:48
Overcast
Rain
39°F / 4°C 37°F / 3°C 93% 29.98 in
(1015 mb)
NNW 9.2 mph
(NNW 15 kph)
0.07 in
(1.78 mm)
10SM
05:54
Overcast
Light Rain
41°F / 5°C 37°F / 3°C 87% 29.92 in
(1013 mb)
N 10.4 mph
(N 17 kph)
0.06 in
(1.52 mm)
10SM
04:54
Overcast
Light Rain
41°F / 5°C 39°F / 4°C 93% 29.95 in
(1014 mb)
N 6.9 mph
(N 11 kph)
0.05 in
(1.27 mm)
10SM
03:54
Overcast
Light Rain
41°F / 5°C 39°F / 4°C 93% 29.95 in
(1014 mb)
N 6.9 mph
(N 11 kph)
0.05 in
(1.27 mm)
9SM
02:54
Overcast
Light Rain
43°F / 6°C 39°F / 4°C 87% 29.98 in
(1015 mb)
N 4.6 mph
(N 7 kph)
0.09 in
(2.29 mm)
8SM
01:54
Overcast
Light Rain
43°F / 6°C 39°F / 4°C 87% 30.01 in
(1016 mb)
WNW 4.6 mph
(WNW 7 kph)
0.06 in
(1.52 mm)
8SM
00:54
Overcast
Light Rain
43°F / 6°C 39°F / 4°C 87% 30.04 in
(1017 mb)
NNE 3.5 mph
(NNE 6 kph)
0.03 in
(0.76 mm)
9SM
Time Weather Temperature Dewpoint Humidity Pressure Winds Precip Visibility


Weather for websites

WeatherForYou.com, LLC is not responsible for any damages or problems caused by this service. Current weather conditions are obtained from the closest station including government and personal stations which may have varying degrees of accuracy. Weather forecasts are derived from the NOAA NDFD. Like all things, this site belongs to Jesus Christ... He just trusts me to maintain it. If you have any questions or comments email webmaster@weatherforyou.com

Copyright © 2014, WeatherForYou.com LLC. All rights reserved.